Flag for Singapore Weather past 2 weeks in Singapore, Singapore

Now
82 °F

Partly sunny.


Feels Like: 89 °F
Forecast: 78 / 87 °F
Wind: 1 mph from West

Location: Singapore / Paya Lebar

Current Time: Sep 20, 2014 at 8:42:04 AM

Latest Report: Sep 20, 2014 at 8:00 AM


Visibility: N/A

Pressure: 29.83 "Hg

Humidity: 79%

Dew point: 75 °F

Location of SingaporeLocation

Historic Weather in Singapore — Graph

°F

Singapore temperature yesterday

Maximum temperature yesterday: 93 °F (at 3:00 PM)
Minimum temperature yesterday: 82 °F (at 5:00 AM)
Average temperature yesterday: 87 °F

Past Weeks' High & Low Weather Summary

 TemperatureHumidityPressure
High93 °F (Sep 19, 3:00 PM)94% (Sep 11, 10:00 PM)29.92 "Hg (Sep 11, 10:00 PM)
Low77 °F (Sep 5, 9:00 AM)46% (Sep 15, 3:00 PM)29.68 "Hg (Sep 16, 4:00 PM)
Average85 °F72%29.82 "Hg
* Reported Sep 5 7:00 AM — Sep 20 7:00 AM, Singapore, Weather by CustomWeather, © 2014

Note: Actual official high and low records may vary slightly from our data, if they occured in-between our weather recording intervals... More about our weather records

Advertising

Singapore weather history for previous 24 hours

 ConditionsComfort  
Time TempWeatherWind HumidityBarometerVisibility
7:00 AM
Sep 20
81 °FScattered showers. Partly sunny.3 mph84%29.80 "Hg6 mi
6:00 AM82 °FPassing clouds.2 mph89%29.80 "Hg6 mi
5:00 AM82 °FPassing clouds.3 mph84%29.80 "Hg6 mi
11:00 PM
Sep 19
84 °FPassing clouds.5 mph79%29.86 "HgN/A
10:00 PM86 °FPassing clouds.6 mph79%29.86 "HgN/A
9:00 PM86 °FPartly cloudy.5 mph75%29.83 "HgN/A
8:00 PM86 °FPassing clouds.6 mph75%29.80 "HgN/A
7:00 PM88 °FPartly sunny.7 mph66%29.77 "Hg6 mi
6:00 PM90 °FPartly sunny.8 mph59%29.77 "Hg6 mi
5:00 PM91 °FPartly sunny.12 mph59%29.74 "Hg6 mi
4:00 PM93 °FPartly sunny.13 mph59%29.74 "Hg6 mi
3:00 PM93 °FPartly sunny.9 mph59%29.74 "Hg5 mi
2:00 PM91 °FPartly sunny.9 mph63%29.77 "Hg4 mi
1:00 PM91 °FPartly sunny.6 mph63%29.83 "Hg4 mi
12:00 PM90 °FPartly sunny.8 mph67%29.86 "Hg4 mi
11:00 AM88 °FPartly sunny.7 mph70%29.89 "Hg4 mi
10:00 AM88 °FPartly sunny.6 mph70%29.89 "Hg4 mi
9:00 AM84 °FPartly sunny.6 mph79%29.89 "Hg3 mi
8:00 AM82 °FPartly sunny.2 mph89%29.86 "Hg2 mi
Weather by CustomWeather, © 2014

See weather overviewHow to use our weather pages